軌道要素
Epoch 2008 Oct. 21.0 TT = JDT 2454760.5
T 2008 Oct. 19.00107 TT MPC
q 1.3823298 (2000.0) P Q
n 0.16883542 Peri. 329.58222 +0.86296102 -0.50352822
a 3.2421045 Node 60.70916 +0.47271954 +0.77528297
e 0.5736320 Incl. 2.75525 +0.17842232 +0.38130781
P 5.84
From 987 observations 2008 Aug. 27-2014 June 17, mean residual 0".4.
|